CAPE
0 0 0 0 0 0 0 0 0 0 0 0 0 0 0 0 0 0 0 0 0 0 0 0 0 0 0 0 0 0 0 0 4 0 110 209 127 226 387 196 212 367 710 945 547
0 0 0 0 0 0 0 0 0 0 0 0 0 0 0 0 0 0 0 0 0 0 0 0 0 0 0 0 0 0 0 0 0 0 154 132 39 31 98 144 314 693 750 568 530
0 0 0 0 0 0 0 0 0 0 0 0 0 0 0 0 0 0 0 0 0 0 0 0 0 0 0 0 0 0 0 0 0 0 31 11 79 0 59 35 163 476 653 698 815
0 0 0 0 0 0 0 0 0 0 0 0 0 0 0 0 0 0 0 0 0 0 0 0 0 0 0 0 0 0 0 0 0 0 7 4 8 0 33 50 21 289 397 331 263
0 0 0 0 0 0 0 0 0 0 0 0 0 0 0 0 0 0 0 0 0 0 0 0 0 0 0 0 0 0 0 0 0 0 0 0 0 1 1 0 0 6 23 35 0
0 0 0 0 0 0 0 0 0 0 0 0 0 0 0 0 0 0 0 0 0 0 0 0 0 0 0 0 0 0 0 0 0 0 0 0 0 0 0 0 0 0 0 0 0
0 0 0 0 0 0 0 0 0 0 0 0 0 0 0 0 0 0 0 0 0 0 0 0 0 0 0 0 0 0 0 0 0 0 0 0 0 0 0 0 0 0 0 0 0
0 0 0 0 0 0 0 0 0 0 0 0 0 0 0 0 0 0 0 0 0 0 0 0 0 0 0 0 0 0 0 0 0 0 0 0 0 0 0 0 0 0 0 0 0
0 0 0 0 0 0 0 0 0 0 0 0 0 0 0 0 0 0 0 0 0 0 0 0 0 0 0 0 0 0 0 0 0 0 0 0 0 0 0 0 0 0 0 0 0
0 0 0 0 0 0 0 0 0 0 0 0 0 0 0 0 0 0 0 0 0 0 0 0 0 0 0 0 0 0 0 0 0 0 0 0 0 4 0 0 0 0 0 0 0
0 0 0 0 0 0 0 0 0 0 0 0 0 0 0 0 0 0 0 0 0 0 0 0 0 0 0 0 0 0 0 0 0 0 0 0 0 0 0 0 0 0 0 0 0
0 0 0 0 0 0 0 0 0 0 0 0 0 0 0 0 0 0 0 0 0 0 0 0 0 0 0 0 0 0 0 0 0 0 0 0 0 0 0 0 0 0 0 0 0
0 0 0 0 0 0 0 0 0 0 0 0 0 0 0 0 0 0 0 0 0 0 0 0 0 0 0 0 0 0 0 0 0 0 0 0 0 0 0 0 0 0 0 0 0
0 0 0 0 0 0 0 0 0 0 0 0 0 0 0 0 0 0 0 0 0 0 0 0 0 0 0 0 0 0 0 0 0 0 0 0 0 0 0 0 0 0 0 0 3
0 0 0 0 0 0 0 0 0 0 0 0 0 0 0 0 0 0 0 0 0 0 0 0 0 0 0 0 0 0 0 0 0 0 0 0 0 0 0 1 0 0 0 0 2
0 0 0 0 0 0 0 0 0 0 0 0 0 0 0 0 0 0 0 0 0 0 0 0 0 0 0 0 0 0 0 0 0 0 0 0 0 0 10 2 0 0 0 0 0
0 0 0 0 0 0 0 0 0 0 0 0 0 0 0 0 0 0 0 0 0 0 0 0 0 0 0 0 0 0 0 0 0 0 0 0 0 0 0 0 0 0 0 0 0
0 0 0 0 0 0 0 0 0 0 0 0 0 0 0 0 0 0 0 0 0 0 0 0 0 0 0 0 0 0 0 0 0 8 23 0 0 0 0 0 0 0 3 18 32
0 0 0 0 0 0 0 0 0 0 0 0 0 0 0 0 0 0 0 0 0 0 0 0 0 0 0 0 0 0 0 0 7 1 0 5 7 2 0 0 0 0 2 14 0
0 0 0 0 0 0 0 0 0 0 0 0 0 0 0 0 0 0 0 0 0 1 0 0 0 0 0 0 0 0 0 0 0 0 0 14 42 40 0 0 0 0 0 4 17
0 0 0 0 0 0 0 0 0 0 0 0 0 0 0 13 7 0 7 15 0 4 0 0 1 51 0 0 0 0 0 0 7 30 33 50 119 10 0 0 0 21 31 35 52
0 0 0 0 0 0 0 0 0 0 0 0 0 0 0 0 0 0 26 40 0 0 0 0 13 30 46 5 0 5 12 2 12 12 41 11 0 27 0 0 0 0 32 94 67
0 0 0 0 0 0 0 0 0 0 0 0 0 0 0 0 0 0 9 2 0 0 0 35 12 13 36 58 2 0 0 9 48 55 59 23 68 74 6 0 0 0 19 92 26
0 0 0 0 0 0 1 0 0 0 0 0 0 0 0 0 0 0 0 12 0 0 0 2 117 114 104 64 21 3 16 2 18 39 65 62 37 56 20 13 2 19 21 4 19
0 0 0 0 0 0 0 0 0 0 0 0 0 0 0 0 1 5 0 0 1 0 0 8 27 119 66 138 76 1 0 3 18 21 43 86 39 16 6 15 49 13 4 1 1
0 0 0 0 0 0 0 0 0 9 1 0 0 3 0 2 24 122 149 67 31 23 0 40 41 81 73 83 83 43 5 0 0 29 24 58 64 47 34 22 25 9 0 4 0
0 0 0 0 0 0 0 0 3 11 10 2 8 18 2 5 123 212 165 150 191 155 96 17 0 40 22 244 134 2 0 0 36 32 45 56 21 67 59 30 0 0 5 6 0
CIN
-0 -0 -0 -0 -0 -0 -0 -0 -0 -0 -0 -0 -0 -0 -0 -0 -0 -0 -0 -0 -0 -0 -0 -0 -0 -0 -0 -0 -0 -0 -0 -0 -1 -0 -2 -6 -2 -5 -23 -29 -5 -13 -7 -47 -87
-0 -0 -0 -0 -0 -0 -0 -0 -0 -0 -0 -0 -0 -0 -0 -0 -0 -0 -0 -0 -0 -0 -0 -0 -0 -0 -0 -0 -0 -0 -0 -0 -0 -0 -4 -4 -2 -8 -11 -13 -5 -28 -58 -75 -60
-0 -0 -0 -0 -0 -0 -0 -0 -0 -0 -0 -0 -0 -0 -0 -0 -0 -0 -0 -0 -0 -0 -0 -0 -0 -0 -0 -0 -0 -0 -0 -0 -0 -0 -5 -3 -3 -0 -2 -5 -3 -2 -32 -40 -29
-0 -0 -0 -0 -0 -0 -0 -0 -0 -0 -0 -0 -0 -0 -0 -0 -0 -0 -0 -0 -0 -0 -0 -0 -0 -0 -0 -0 -0 -0 -0 -0 -0 -0 -2 -1 -3 -0 -2 -5 -6 -5 -34 -33 -21
-0 -0 -0 -0 -0 -0 -0 -0 -0 -0 -0 -0 -0 -0 -0 -0 -0 -0 -0 -0 -0 -0 -0 -0 -0 -0 -0 -0 -0 -0 -0 -0 -0 -0 -0 -1 -0 -1 -0 -0 -0 -43 -81 -55 -0
-0 -0 -0 -0 -0 -0 -0 -0 -0 -0 -0 -0 -0 -0 -0 -0 -0 -0 -0 -0 -0 -0 -0 -0 -0 -0 -0 -0 -0 -0 -0 -0 -0 -0 -0 -0 -0 -0 -0 -0 -0 -0 -0 -0 -0
-0 -0 -0 -0 -0 -0 -0 -0 -0 -0 -0 -0 -0 -0 -0 -0 -0 -0 -0 -0 -0 -0 -0 -0 -0 -0 -0 -0 -0 -0 -0 -0 -0 -0 -0 -0 -0 -0 -0 -0 -0 -0 -0 -0 -0
-0 -0 -0 -0 -0 -0 -0 -0 -0 -0 -0 -0 -0 -0 -0 -0 -0 -0 -0 -0 -0 -0 -0 -0 -0 -0 -0 -0 -0 -0 -0 -0 -0 -0 -0 -0 -0 -0 -0 -0 -0 -0 -0 -0 -0
-0 -0 -0 -0 -0 -0 -0 -0 -0 -0 -0 -0 -0 -0 -0 -0 -0 -0 -0 -0 -0 -0 -0 -0 -0 -0 -0 -0 -0 -0 -0 -0 -0 -0 -0 -0 -0 -0 -0 -0 -0 -0 -0 -0 -0
-0 -0 -0 -0 -0 -0 -0 -0 -0 -0 -0 -0 -0 -0 -0 -0 -0 -0 -0 -0 -0 -0 -0 -0 -0 -0 -0 -0 -0 -0 -0 -0 -0 -0 -0 -0 -0 -3 -0 -0 -0 -0 -0 -0 -0
-0 -0 -0 -0 -0 -0 -0 -0 -0 -0 -0 -0 -0 -0 -0 -0 -0 -0 -0 -0 -0 -0 -0 -0 -0 -0 -0 -0 -0 -0 -0 -0 -0 -0 -0 -0 -0 -0 -0 -0 -0 -0 -0 -0 -0
-0 -0 -0 -0 -0 -0 -0 -0 -0 -0 -0 -0 -0 -0 -0 -0 -0 -0 -0 -0 -0 -0 -0 -0 -0 -0 -0 -0 -0 -0 -0 -0 -0 -0 -0 -0 -0 -0 -0 -0 -0 -0 -0 -0 -0
-0 -0 -0 -0 -0 -0 -0 -0 -0 -0 -0 -0 -0 -0 -0 -0 -0 -0 -0 -0 -0 -0 -0 -0 -0 -0 -0 -0 -0 -0 -0 -0 -0 -0 -0 -0 -0 -0 -0 -0 -0 -0 -0 -0 -0
-0 -0 -0 -0 -0 -0 -0 -0 -0 -0 -0 -0 -0 -0 -0 -0 -0 -0 -0 -0 -0 -0 -0 -0 -0 -0 -0 -0 -0 -0 -0 -0 -0 -0 -0 -0 -0 -0 -0 -0 -0 -0 -0 -1 -5
-0 -0 -0 -0 -0 -0 -0 -0 -0 -0 -0 -0 -0 -0 -0 -0 -0 -0 -0 -0 -0 -0 -0 -0 -0 -0 -0 -0 -0 -0 -0 -0 -0 -0 -0 -0 -0 -0 -1 -2 -0 -0 -0 -0 -2
-0 -0 -0 -0 -0 -0 -0 -0 -0 -0 -0 -0 -0 -0 -0 -0 -0 -0 -0 -0 -0 -0 -0 -0 -0 -0 -0 -0 -0 -0 -0 -0 -0 -0 -0 -0 -0 -0 -6 -1 -0 -0 -0 -0 -0
-0 -0 -0 -0 -0 -0 -0 -0 -0 -0 -0 -0 -0 -0 -0 -0 -0 -0 -0 -0 -0 -0 -0 -0 -0 -0 -0 -0 -0 -0 -0 -0 -0 -0 -0 -0 -0 -0 -0 -0 -0 -0 -0 -0 -0
-0 -0 -0 -0 -0 -0 -0 -0 -0 -0 -0 -0 -0 -0 -0 -0 -0 -0 -0 -0 -0 -0 -0 -0 -0 -0 -0 -0 -0 -0 -0 -0 -0 -3 -10 -0 -0 -0 -0 -0 -0 -0 -65 -55 -35
-0 -0 -0 -0 -0 -0 -0 -0 -0 -0 -0 -0 -0 -0 -0 -0 -0 -0 -0 -0 -0 -0 -0 -0 -0 -0 -0 -0 -0 -0 -0 -0 -2 -0 -0 -12 -3 -1 -0 -0 -0 -0 -18 -30 -0
-0 -0 -0 -0 -0 -0 -0 -0 -0 -0 -0 -0 -0 -0 -0 -0 -0 -0 -1 -0 -0 -2 -0 -0 -0 -0 -0 -0 -0 -0 -0 -1 -0 -0 -1 -14 -24 -6 -0 -0 -0 -0 -2 -1 -2
-0 -0 -0 -0 -0 -0 -0 -0 -0 -0 -0 -0 -0 -0 -0 -3 -4 -0 -4 -9 -0 -7 -0 -0 -1 -4 -0 -0 -0 -0 -0 -0 -2 -8 -9 -1 -4 -36 -0 -0 -1 -1 -3 -5 -3
-0 -0 -0 -0 -0 -0 -0 -0 -0 -0 -0 -0 -0 -0 -0 -0 -0 -0 -7 -5 -0 -0 -0 -0 -3 -5 -6 -6 -0 -3 -8 -6 -6 -6 -7 -7 -0 -11 -0 -0 -0 -0 -3 -4 -5
-0 -0 -0 -0 -0 -0 -0 -0 -0 -0 -0 -0 -0 -0 -0 -0 -0 -0 -4 -15 -0 -0 -0 -20 -5 -5 -4 -7 -2 -1 -0 -5 -8 -5 -6 -53 -17 -23 -9 -0 -0 -0 -3 -8 -37
-0 -0 -0 -0 -0 -0 -2 -0 -0 -0 -0 -0 -0 -0 -0 -0 -0 -0 -2 -4 -0 -0 -0 -10 -16 -5 -20 -9 -33 -50 -24 -1 -5 -5 -5 -5 -5 -21 -28 -12 -2 -46 -19 -12 -49
-0 -0 -0 -0 -0 -0 -0 -0 -0 -0 -0 -0 -0 -0 -0 -0 -1 -2 -0 -0 -1 -0 -0 -49 -33 -6 -5 -19 -60 -23 -0 -5 -12 -6 -7 -5 -11 -40 -10 -12 -13 -50 -44 -9 -1
-0 -0 -0 -0 -0 -0 -0 -0 -0 -3 -0 -0 -0 -2 -0 -14 -53 -12 -25 -47 -4 -5 -0 -32 -32 -29 -5 -3 -21 -39 -95 -0 -0 -25 -17 -5 -4 -6 -32 -51 -52 -40 -0 -1 -1
-0 -0 -0 -0 -0 -0 -0 -0 -2 -3 -2 -3 -3 -3 -1 -7 -40 -21 -19 -5 -4 -3 -3 -21 -0 -5 -13 -4 -15 -5 -0 -0 -103 -16 -14 -8 -38 -12 -39 -58 -0 -0 -2 -1 -0
Wind_Speed
22 22 22 22 22 22 21 20 20 20 20 20 21 21 21 20 21 20 19 12 12 8 14 16 10 19 21 23 23 23 24 17 6 4 4 6 5 11 11 10 12 14 15 13 13
23 23 23 22 22 22 22 21 21 20 20 20 21 21 21 21 21 21 8 10 8 8 20 15 17 16 22 23 22 25 22 21 6 11 3 7 6 7 7 8 10 12 13 12 12
24 24 24 23 23 23 22 20 20 20 20 20 21 20 20 20 19 6 8 7 7 7 22 21 23 15 22 21 22 22 23 13 11 15 4 8 5 7 6 5 7 7 9 10 10
26 25 25 24 24 24 23 21 21 21 21 21 21 20 20 20 14 10 7 7 8 19 21 10 10 14 20 17 5 22 22 14 6 9 3 4 6 5 4 15 9 8 8 9 8
27 26 26 26 25 25 24 22 21 21 21 21 20 20 19 13 10 9 7 7 8 21 22 7 9 15 19 13 5 22 6 11 5 2 3 4 5 4 7 10 9 9 8 8 9
28 28 28 27 27 26 25 23 22 21 21 21 19 17 14 17 11 8 8 7 13 11 13 16 17 17 19 2 14 9 8 6 4 4 3 3 3 7 6 7 6 6 7 8 8
30 30 29 29 29 27 26 24 23 21 21 18 14 17 26 20 10 5 5 6 9 17 10 15 17 6 13 5 9 8 5 4 4 4 3 2 2 2 3 3 4 4 5 6 7
31 31 31 31 31 29 27 25 23 18 17 18 17 15 23 10 8 4 4 8 11 13 20 17 17 24 5 13 3 3 6 3 5 4 1 1 2 0 2 4 3 3 4 4 6
33 33 33 33 32 30 28 25 21 16 14 13 16 9 7 9 4 6 5 5 6 12 13 17 16 8 6 2 2 3 1 3 5 6 1 0 3 2 3 3 1 2 3 4 5
34 34 34 34 34 31 28 23 19 16 13 12 20 16 11 5 4 5 5 12 7 7 8 8 9 6 2 4 2 2 3 3 3 2 5 2 3 1 3 4 3 1 2 5 6
35 35 34 34 33 29 25 16 16 15 6 12 17 12 11 8 7 2 2 4 9 6 3 4 6 3 4 7 9 24 6 7 3 3 2 6 5 8 2 5 5 4 3 4 4
36 36 36 35 32 26 21 19 18 21 25 19 10 13 10 9 5 2 3 1 4 7 4 9 10 12 7 8 6 14 11 8 8 8 11 7 8 9 7 6 8 6 5 5 5
37 36 36 35 30 23 20 17 21 23 22 22 9 7 4 4 6 1 2 3 6 9 7 13 18 10 12 11 11 9 10 10 11 8 10 14 13 10 9 7 8 9 8 7 7
37 37 37 37 23 25 18 19 22 20 24 13 12 14 4 4 6 3 5 3 11 14 11 15 15 12 12 12 10 12 11 16 18 14 16 9 15 11 10 10 9 9 9 8 8
37 37 36 31 27 22 21 22 22 17 24 11 9 10 3 6 15 6 3 4 13 12 15 14 13 14 12 12 8 15 14 13 17 19 21 17 18 24 15 9 9 10 10 8 9
38 37 36 21 19 21 23 20 17 20 27 15 11 9 5 6 10 3 5 7 12 18 11 21 15 17 14 12 13 13 15 17 18 18 21 16 19 16 18 9 9 10 8 8 10
38 38 33 25 21 23 22 15 20 25 16 18 15 10 8 7 8 8 7 9 10 12 14 15 18 14 16 13 12 13 13 17 15 14 19 14 17 22 15 15 16 17 15 13 11
39 36 21 16 22 22 16 13 26 21 20 17 18 17 15 10 12 10 9 12 11 12 20 17 16 11 10 13 12 13 14 18 23 19 16 10 18 16 15 16 16 14 12 10 9
38 25 19 13 19 14 13 22 21 24 19 19 19 20 16 15 16 14 15 14 13 12 19 19 21 12 9 10 16 17 15 20 25 23 26 21 18 14 13 13 13 11 9 9 9
30 26 18 15 14 11 16 23 19 18 17 19 22 19 20 15 17 16 14 17 18 13 14 18 23 11 14 17 18 21 21 18 19 25 27 23 16 18 12 12 11 10 9 9 8
21 18 12 15 12 12 20 21 22 14 16 20 21 21 21 19 16 20 17 14 18 18 18 18 19 16 12 14 15 13 18 18 25 18 22 23 20 16 15 12 15 11 8 7 3
19 15 12 12 11 11 18 18 17 14 14 17 19 21 20 16 19 22 17 17 17 20 19 16 22 27 21 18 17 21 15 14 20 21 23 23 25 25 17 15 17 14 15 12 5
19 22 15 14 14 12 14 18 17 17 17 19 23 23 22 23 20 23 18 15 19 19 19 21 20 28 27 23 20 24 22 22 17 22 25 19 21 17 17 18 16 15 16 12 11
21 20 13 13 20 21 20 18 19 19 22 20 21 20 20 21 23 22 17 13 15 16 20 18 21 24 30 34 35 26 32 24 22 27 23 27 30 22 15 17 13 16 14 11 10
20 21 22 17 17 22 25 24 20 18 25 18 19 19 18 22 23 20 21 24 17 15 14 15 17 25 33 34 40 39 28 40 15 21 26 26 26 26 21 18 16 14 11 10 11
24 24 20 27 24 23 23 26 25 23 20 21 23 16 20 22 21 21 22 18 20 11 15 13 18 17 29 31 33 42 43 40 41 26 27 26 30 25 16 15 13 11 10 10 13
20 24 25 24 23 26 26 25 24 25 20 25 20 19 19 22 22 21 20 22 22 20 21 18 19 14 21 35 40 48 54 42 45 42 28 29 23 15 14 13 12 10 10 12 13
Wind_Direction
326 324 323 322 319 314 304 292 281 270 263 256 254 255 256 256 249 221 209 302 314 354 284 229 119 162 173 192 188 186 212 187 222 347 99 84 39 316 354 34 8 355 12 58 68
321 319 317 316 315 312 304 294 284 275 264 258 259 258 261 268 236 207 340 342 357 32 156 125 140 141 170 182 178 189 188 211 331 289 85 103 104 42 54 38 33 28 44 62 70
318 316 314 311 307 308 304 287 275 266 260 258 262 265 265 266 220 136 21 16 9 5 213 245 241 141 182 176 174 174 201 311 301 285 351 115 39 60 98 66 75 45 53 64 59
316 313 311 307 304 302 302 292 279 266 261 259 263 269 272 254 296 345 44 48 14 245 249 332 114 138 173 157 360 198 273 305 322 309 35 71 351 30 23 360 37 53 68 66 63
314 312 310 307 303 300 297 289 280 271 264 267 271 277 275 141 233 9 56 45 356 212 219 20 105 150 172 147 95 196 6 318 3 53 1 56 20 63 346 349 30 63 69 68 65
313 311 310 307 304 301 296 287 276 263 256 277 287 296 297 179 339 33 75 56 174 152 307 284 289 284 262 145 150 333 332 353 68 79 70 39 49 342 356 2 46 74 76 76 63
314 312 310 307 305 300 295 290 279 265 259 301 324 293 241 279 328 46 56 65 341 294 329 300 290 338 317 19 317 331 88 54 83 116 10 84 357 354 4 31 76 91 80 72 81
314 312 310 307 305 300 294 290 284 313 311 297 301 308 259 327 342 78 72 338 322 316 283 298 291 262 331 317 17 89 130 97 132 121 26 74 253 231 46 113 115 111 108 101 104
315 313 311 308 305 299 292 290 302 323 331 337 312 343 303 346 32 99 94 71 356 316 311 297 295 321 333 30 88 136 155 176 145 153 108 166 315 174 129 148 148 146 153 148 139
313 312 310 308 305 298 291 303 316 323 331 338 299 304 307 355 102 115 105 305 346 348 343 333 318 319 315 167 216 325 284 265 210 170 195 261 242 64 160 186 209 249 208 178 177
312 310 308 306 302 294 303 327 325 324 320 307 316 306 335 338 331 4 40 353 317 335 13 7 323 284 192 182 189 297 314 306 311 299 211 231 259 283 254 211 215 250 220 209 202
312 310 308 306 298 289 307 312 319 311 296 300 299 303 328 326 323 310 119 318 315 308 327 323 309 305 313 305 287 302 306 302 311 317 312 285 275 265 255 238 227 243 238 239 242
311 309 308 303 294 298 310 319 312 310 303 300 297 281 250 304 302 231 185 178 299 302 298 298 324 326 313 308 304 297 293 301 298 305 308 308 299 278 266 251 235 229 245 257 262
312 310 310 305 305 303 309 313 309 316 299 301 306 304 219 283 273 283 172 279 301 298 296 300 302 311 306 303 306 303 299 305 307 303 306 261 304 291 268 251 261 247 241 248 271
311 309 307 309 302 306 305 303 306 319 292 315 323 335 317 203 319 210 199 266 293 299 301 300 296 304 294 296 300 309 330 312 307 302 304 299 308 307 315 264 273 276 258 257 282
309 308 309 321 315 307 307 302 306 293 281 303 314 308 295 224 302 282 234 276 300 296 293 287 313 304 297 300 304 312 312 308 308 304 296 300 299 306 312 281 300 302 278 274 299
303 299 302 308 303 312 306 298 287 277 310 295 296 298 282 260 259 286 257 254 275 291 290 294 290 300 299 297 298 301 308 306 303 302 299 315 310 296 324 329 321 326 320 322 324
300 291 319 317 308 310 304 288 277 294 280 304 301 293 280 277 253 277 271 266 264 283 295 294 290 281 294 280 297 292 290 302 300 308 321 327 314 310 327 325 325 326 333 340 343
301 315 316 325 317 318 290 272 280 284 295 298 290 287 280 277 287 264 271 275 271 269 288 301 297 318 285 290 285 299 286 298 298 297 298 304 320 324 330 333 332 334 339 343 349
317 311 311 321 322 318 284 274 283 293 303 294 282 288 281 274 278 271 273 283 282 283 281 297 295 301 299 295 291 286 302 290 295 296 294 304 302 315 330 338 345 344 342 339 346
328 326 345 326 323 300 280 279 276 302 296 289 284 289 281 292 283 279 282 290 289 281 287 282 294 302 300 291 287 297 282 289 295 291 296 297 310 337 336 342 342 347 340 330 336
322 322 344 335 316 299 289 288 298 295 296 290 289 288 289 288 286 281 289 290 310 295 292 274 289 282 286 298 288 286 290 277 283 287 293 292 290 319 329 334 333 336 345 14 21
310 302 321 313 309 298 296 296 291 286 283 281 273 273 278 278 287 280 284 309 309 297 295 294 283 282 286 285 286 282 282 287 287 287 289 295 309 327 325 325 331 333 337 349 353
304 306 308 297 291 296 295 287 281 283 278 275 278 282 280 278 278 282 289 300 316 309 301 301 287 284 283 281 285 295 282 276 275 280 286 287 296 309 321 316 332 338 344 350 1
297 295 296 300 288 285 281 284 276 279 269 281 278 279 281 279 279 284 284 285 304 310 310 301 280 285 284 284 281 284 289 257 267 272 278 289 294 303 316 330 333 346 355 4 2
290 292 295 282 284 284 279 273 274 274 280 276 274 281 278 280 281 292 295 298 295 314 305 306 298 291 283 285 287 283 278 275 247 287 285 286 289 302 314 328 336 343 351 358 355
299 291 287 287 281 276 274 272 273 277 279 278 279 277 278 281 287 295 301 295 297 302 303 305 302 281 253 287 286 277 253 279 283 281 280 286 299 323 315 324 334 342 350 354 358